Weather History for St. Joseph, MO

Change the Weather History Date:

Wednesday, December 26, 2012

  Actual Average Record
Temperature  
Mean Temperature 14 °F 27 °F  
Max Temperature 23 °F 37 °F 65 °F (2008)
Min Temperature 4 °F 17 °F -11 °F (1948)
Degree Days  
Heating Degree Days 51 38  
Month to date heating degree days 785 911  
Since 1 July heating degree days 1897 2022  
Cooling Degree Days 0 0  
Month to date cooling degree days 0 0  
Year to date cooling degree days 1565 1221  
Moisture  
Dew Point 7 °F    
Average Humidity 71    
Maximum Humidity 83    
Minimum Humidity 59    
Precipitation  
Precipitation 0.00 in 0.04 in 1.31 in (1942)
Month to date precipitation 0.94 1.30  
Year to date precipitation 23.25 35.38  
Sea Level Pressure  
Sea Level Pressure 30.29 in    
Wind  
Wind Speed 6 mph (North)    
Max Wind Speed 15 mph    
Max Gust Speed 18 mph    
Visibility 10 miles    
Events      
T = Trace of Precipitation, MM = Missing Value Source: NWS Daily Summary

Daily Weather History Graph

Daily Weather History Graph

Search for Another Location

Airport:

Trip Planner

Search our weather history database for the weather conditions in past years. The results will help you decide how hot, cold, wet, or windy it might be!

Date:

Astronomy

Dec. 26, 2012 Rise Set
Actual Time 7:39 AM CST 5:01 PM CST
Civil Twilight 7:09 AM CST 5:32 PM CST
Nautical Twilight 6:35 AM CST 6:05 PM CST
Astronomical Twilight 6:02 AM CST 6:38 PM CST
Moon 3:55 PM CST (12/26) 6:03 AM CST (12/26)
Length of Visible Light 10h 22m
Length of Day
9h 22m
Waxing Gibbous, 97% of the Moon is Illuminated
Dec 26
Waxing Gibbous
Dec 28
Full
Jan 4
Last Quarter
Jan 11
New
Jan 18
First Quarter

Hourly Weather History & Observations

Time (CST) Temp. Windchill Dew Point Humidity Pressure Visibility Wind Dir Wind Speed Gust Speed Precip Events Conditions
12:53 AM 10.0 °F -2.9 °F 3.9 °F 76% 30.35 in 10.0 mi North 9.2 mph - N/A   Clear
1:53 AM 9.0 °F -5.9 °F 3.9 °F 80% 30.34 in 10.0 mi North 11.5 mph - N/A   Clear
3:53 AM 10.0 °F -5.2 °F 3.9 °F 76% 30.33 in 10.0 mi NNW 12.7 mph - N/A   Clear
4:53 AM 9.0 °F -5.9 °F 3.0 °F 77% 30.30 in 10.0 mi North 11.5 mph - N/A   Clear
5:53 AM 8.1 °F -7.0 °F 1.9 °F 76% 30.32 in 10.0 mi NNW 11.5 mph - N/A   Clear
6:53 AM 7.0 °F -4.5 °F 1.0 °F 77% 30.30 in 10.0 mi North 6.9 mph - N/A   Clear
7:53 AM 5.0 °F -4.1 °F -0.0 °F 80% 30.30 in 10.0 mi North 4.6 mph - N/A   Clear
8:53 AM 8.1 °F -3.2 °F 1.9 °F 76% 30.32 in 10.0 mi North 6.9 mph - N/A   Clear
9:53 AM 10.9 °F 0.2 °F 3.0 °F 70% 30.33 in 10.0 mi North 6.9 mph - N/A   Clear
10:53 AM 14.0 °F 5.1 °F 6.1 °F 71% 30.34 in 10.0 mi NNW 5.8 mph - N/A   Clear
11:53 AM 17.1 °F 6.6 °F 7.0 °F 65% 30.30 in 10.0 mi North 8.1 mph - N/A   Clear
12:53 PM 19.9 °F 10.1 °F 9.0 °F 62% 30.28 in 10.0 mi North 8.1 mph - N/A   Clear
1:53 PM 21.9 °F 14.5 °F 10.0 °F 60% 30.26 in 10.0 mi North 5.8 mph - N/A   Clear
2:53 PM 23.0 °F 15.8 °F 10.9 °F 60% 30.25 in 10.0 mi NE 5.8 mph - N/A   Clear
3:53 PM 21.9 °F 17.2 °F 12.0 °F 66% 30.25 in 10.0 mi North 3.5 mph - N/A   Clear
4:53 PM 21.9 °F 17.2 °F 12.9 °F 68% 30.26 in 10.0 mi NW 3.5 mph - N/A   Clear
5:53 PM 19.9 °F - 12.0 °F 71% 30.28 in 10.0 mi Calm Calm - N/A   Clear
7:53 PM 19.9 °F 12.1 °F 12.0 °F 71% 30.26 in 10.0 mi West 5.8 mph - N/A   Clear
8:53 PM 19.0 °F 13.9 °F 12.9 °F 77% 30.23 in 10.0 mi NE 3.5 mph - N/A   Clear
9:53 PM 16.0 °F - 10.9 °F 81% 30.24 in 10.0 mi Calm Calm - N/A   Clear
10:53 PM 15.1 °F - 10.0 °F 80% 30.24 in 10.0 mi Calm Calm - N/A   Clear
11:53 PM 12.9 °F 6.9 °F 10.0 °F 88% 30.22 in 10.0 mi North 3.5 mph - N/A   Clear